Tallevast, FL

6:54 PM EDT on September 26, 2016 (GMT -0400)
Sarasota-bradenton

Weather History for KSRQ - February, 2014

Change the Weather History Date:

Thursday, February 13, 2014

  Actual Average Record
Temperature  
Mean Temperature 59 °F 63 °F  
Max Temperature 67 °F 73 °F 86 °F (1959)
Min Temperature 51 °F 53 °F 31 °F (1955)
Degree Days  
Heating Degree Days 6 4  
Month to date heating degree days 13 52  
Since 1 July heating degree days 266 372  
Cooling Degree Days 0 2  
Month to date cooling degree days 42 22  
Year to date cooling degree days 73 74  
Growing Degree Days 9 (Base 50)    
Moisture  
Dew Point 52 °F    
Average Humidity 74    
Maximum Humidity 93    
Minimum Humidity 56    
Precipitation  
Precipitation T in 0.13 in 2.00 in (1983)
Month to date precipitation 1.14 0.71  
Year to date precipitation 3.24 3.20  
Sea Level Pressure  
Sea Level Pressure 29.87 in    
Wind  
Wind Speed 16 mph (NW)    
Max Wind Speed 28 mph    
Max Gust Speed 36 mph    
Visibility 10 miles    
Events      
T = Trace of Precipitation, MM = Missing Value Source: NWS Daily Summary

Daily Weather History Graph

Daily Weather History Graph

Search for Another Location

Airport or City:

Trip Planner

Search our weather history database for the weather conditions in past years. The results will help you decide how hot, cold, wet, or windy it might be!

Date:

Astronomy

Feb. 13, 2014 Rise Set
Actual Time 7:08 AM EST 6:20 PM EST
Civil Twilight 6:44 AM EST 6:44 PM EST
Nautical Twilight 6:17 AM EST 7:11 PM EST
Astronomical Twilight 5:50 AM EST 7:39 PM EST
Moon 5:27 PM EST (2/13) 5:59 AM EST (2/13)
Length of Visible Light 11h 59m
Length of Day
11h 11m
Waxing Gibbous, 98% of the Moon is Illuminated
Feb 13
Waxing Gibbous
Feb 14
Full
Feb 22
Last Quarter
Mar 1
New
Mar 8
First Quarter

Hourly Weather History & Observations

Time (EST) Temp. Dew Point Humidity Pressure Visibility Wind Dir Wind Speed Gust Speed Precip Events Conditions
12:53 AM 66.0 °F 64.0 °F 93% 29.74 in 10.0 mi SSW 16.1 mph 23.0 mph N/A   Mostly Cloudy
1:24 AM 66.9 °F 64.0 °F 90% 29.74 in 10.0 mi SSW 16.1 mph - 0.00 in   Overcast
1:50 AM 66.2 °F 62.6 °F 88% 29.76 in 10.0 mi WNW 20.7 mph - 0.00 in   Overcast
1:53 AM 66.0 °F 63.0 °F 90% 29.76 in 10.0 mi West 17.3 mph 27.6 mph 0.00 in   Overcast
2:00 AM 64.9 °F 63.0 °F 93% 29.76 in 10.0 mi West 18.4 mph - N/A   Overcast
2:53 AM 64.0 °F 60.1 °F 87% 29.75 in 10.0 mi WNW 17.3 mph - N/A   Overcast
3:53 AM 64.0 °F 55.9 °F 75% 29.76 in 10.0 mi WNW 21.9 mph 32.2 mph N/A   Overcast
4:53 AM 64.0 °F 55.9 °F 75% 29.77 in 10.0 mi WNW 23.0 mph 27.6 mph N/A   Overcast
5:53 AM 63.0 °F 55.0 °F 75% 29.79 in 10.0 mi WNW 18.4 mph 26.5 mph N/A   Overcast
6:53 AM 62.1 °F 53.1 °F 72% 29.82 in 10.0 mi NW 18.4 mph - N/A   Mostly Cloudy
7:23 AM 60.1 °F 54.0 °F 80% 29.84 in 10.0 mi NW 17.3 mph - N/A   Overcast
7:31 AM 60.1 °F 54.0 °F 80% 29.85 in 10.0 mi NW 13.8 mph - N/A   Overcast
7:53 AM 59.0 °F 53.1 °F 81% 29.85 in 10.0 mi NNW 15.0 mph 26.5 mph N/A   Overcast
8:53 AM 59.0 °F 52.0 °F 78% 29.88 in 10.0 mi NNW 19.6 mph 24.2 mph N/A   Overcast
9:13 AM 59.0 °F 52.0 °F 78% 29.89 in 10.0 mi NNW 15.0 mph 25.3 mph N/A   Overcast
9:53 AM 60.1 °F 51.1 °F 72% 29.90 in 10.0 mi NW 15.0 mph - N/A   Overcast
10:35 AM 62.1 °F 50.0 °F 65% 29.91 in 10.0 mi WNW 20.7 mph 27.6 mph N/A   Mostly Cloudy
10:53 AM 62.1 °F 50.0 °F 65% 29.91 in 10.0 mi NW 21.9 mph 31.1 mph N/A   Mostly Cloudy
11:12 AM 62.1 °F 48.9 °F 62% 29.90 in 10.0 mi NW 19.6 mph 29.9 mph N/A   Scattered Clouds
11:35 AM 64.0 °F 50.0 °F 60% 29.90 in 10.0 mi WNW 18.4 mph 27.6 mph N/A   Mostly Cloudy
11:53 AM 62.1 °F 48.9 °F 62% 29.91 in 10.0 mi NW 23.0 mph - N/A   Mostly Cloudy
12:42 PM 63.0 °F 50.0 °F 63% 29.90 in 10.0 mi NW 17.3 mph 25.3 mph N/A   Mostly Cloudy
12:53 PM 63.0 °F 48.9 °F 60% 29.90 in 10.0 mi NNW 18.4 mph 27.6 mph N/A   Scattered Clouds
1:53 PM 64.0 °F 48.9 °F 58% 29.88 in 10.0 mi NW 18.4 mph 25.3 mph N/A   Scattered Clouds
2:53 PM 63.0 °F 48.9 °F 60% 29.88 in 10.0 mi NW 20.7 mph 26.5 mph N/A   Scattered Clouds
3:28 PM 61.0 °F 48.9 °F 64% 29.88 in 10.0 mi NNW 17.3 mph - N/A   Mostly Cloudy
3:53 PM 60.1 °F 48.0 °F 64% 29.88 in 10.0 mi NW 19.6 mph 25.3 mph N/A   Scattered Clouds
4:10 PM 60.1 °F 48.9 °F 67% 29.88 in 10.0 mi NW 17.3 mph 24.2 mph N/A   Mostly Cloudy
4:53 PM 57.9 °F 48.0 °F 70% 29.90 in 10.0 mi NNW 15.0 mph - N/A   Overcast
5:53 PM 57.0 °F 48.0 °F 72% 29.92 in 10.0 mi NNW 12.7 mph - N/A   Mostly Cloudy
6:53 PM 55.9 °F 46.9 °F 72% 29.93 in 10.0 mi NNW 13.8 mph - N/A   Overcast
7:53 PM 55.0 °F 46.9 °F 74% 29.96 in 10.0 mi NW 9.2 mph - N/A   Mostly Cloudy
8:53 PM 55.0 °F 46.9 °F 74% 29.99 in 10.0 mi NW 12.7 mph - N/A   Mostly Cloudy
9:14 PM 54.0 °F 46.0 °F 75% 29.99 in 10.0 mi NW 9.2 mph - N/A   Scattered Clouds
9:53 PM 52.0 °F 46.0 °F 80% 29.99 in 10.0 mi NW 6.9 mph - N/A   Clear
10:53 PM 52.0 °F 45.0 °F 77% 29.99 in 10.0 mi NNW 6.9 mph - N/A   Clear
11:53 PM 52.0 °F 45.0 °F 77% 29.99 in 10.0 mi NNW 3.5 mph - N/A   Clear